Regional Weather Roundup
Issued by NWS

Home | Current Version | Previous Version | Graphics & Text | Print | Product List | Glossary On
Versions: 1 2 3 4 5 6 7 8 9 10 11 12 13 14 15 16 17 18 19 20 21 22 23 24 25 26 27
000
ASUS45 KBOI 232110
RWRID

IDAHO REGIONAL WEATHER ROUNDUP
NATIONAL WEATHER SERVICE BOISE ID
300 PM MDT FRI JUN 23 2017

NOTE: "FAIR" INDICATES FEW OR NO CLOUDS BELOW 12000 FEET
WITH NO SIGNIFICANT WEATHER AND/OR OBSTRUCTIONS TO VISIBILITY

IDZ012-014-232200-
SOUTHWEST IDAHO


CITY           SKY/WX    TMP DP  RH WIND       PRES   REMARKS
BOISE          SUNNY     78  28  16 W8        30.16F
CALDWELL       SUNNY     81  31  16 VRB7      30.16F
MOUNTAIN HOME  SUNNY     80  32  17 W9        30.15F
$$

IDZ016-017-232200-
SOUTHCENTRAL IDAHO


CITY           SKY/WX    TMP DP  RH WIND       PRES   REMARKS
BURLEY         SUNNY     75  35  23 VRB5      30.18F
JEROME         SUNNY     76  34  21 VRB5      30.19F
TWIN FALLS     SUNNY     78  39  24 NW10      30.19F
$$

IDZ019>023-232200-
SOUTHEAST IDAHO


CITY           SKY/WX    TMP DP  RH WIND       PRES   REMARKS
IDAHO FALLS    SUNNY     72  31  22 VRB5      30.22F
POCATELLO      SUNNY     75  30  19 NW7       30.21F
REXBURG        SUNNY     71  26  18 VRB5      30.22F
$$

IDZ006-010-011-018-031-032-232200-
CENTRAL IDAHO MOUNTAINS


CITY           SKY/WX    TMP DP  RH WIND       PRES   REMARKS
MCCALL         SUNNY     71  22  15 VRB7      30.24F
HAILEY         SUNNY     72  43  35 SE7       30.24F
STANLEY          N/A     72  24  16 N9        30.29S
SALMON         SUNNY     72  30  21 NW3       30.18F
CHALLIS        SUNNY     75  25  15 VRB3      30.20F
$$

IDZ002-004-006-007-026-232200-
NORTHERN IDAHO


CITY           SKY/WX    TMP DP  RH WIND       PRES   REMARKS
LEWISTON       SUNNY     81  36  19 N6        30.18F
LOWELL           N/A     80  38  22 SE5       30.16F
COEUR D`ALENE  SUNNY     75  41  29 CALM      30.22F
MULLAN PASS    SUNNY     63  27  25 VRB5      30.33R
$$




USA.gov is the U.S. government's official web portal to all federal, state and local government web resources and services.